Year,Month,Day,Hour,Minute,Value (Times are PST for temperature in C)
2007,09,11,00,00,16.60
2007,09,11,00,01,16.60
2007,09,11,00,02,16.60
2007,09,11,00,03,16.50
2007,09,11,00,04,16.40
2007,09,11,00,05,16.40
2007,09,11,00,06,16.40
2007,09,11,00,07,16.40
2007,09,11,00,08,16.40
2007,09,11,00,09,16.40
2007,09,11,00,10,16.40
2007,09,11,00,11,16.30
2007,09,11,00,12,16.30
2007,09,11,00,13,16.30
2007,09,11,00,14,16.30
2007,09,11,00,15,16.20
2007,09,11,00,16,16.20
2007,09,11,00,17,16.10
2007,09,11,00,18,16.10
2007,09,11,00,19,16.10
2007,09,11,00,20,16.10
2007,09,11,00,21,16.10
2007,09,11,00,22,16.10
2007,09,11,00,23,16.10
2007,09,11,00,24,16.10
2007,09,11,00,25,16.10
2007,09,11,00,26,16.10
2007,09,11,00,27,16.10
2007,09,11,00,28,16.20
2007,09,11,00,29,16.30
2007,09,11,00,30,16.30
2007,09,11,00,31,16.40
2007,09,11,00,32,16.40
2007,09,11,00,33,16.40
2007,09,11,00,34,16.50
2007,09,11,00,35,16.60
2007,09,11,00,36,16.60
2007,09,11,00,37,16.70
2007,09,11,00,38,16.80
2007,09,11,00,39,16.80
2007,09,11,00,40,16.90
2007,09,11,00,41,17.00
2007,09,11,00,42,17.00
2007,09,11,00,43,17.10
2007,09,11,00,44,17.10
2007,09,11,00,45,17.20
2007,09,11,00,46,17.20
2007,09,11,00,47,17.30
2007,09,11,00,48,17.30
2007,09,11,00,49,17.30
2007,09,11,00,50,17.40
2007,09,11,00,51,17.40
2007,09,11,00,52,17.50
2007,09,11,00,53,17.50
2007,09,11,00,54,17.60
2007,09,11,00,55,17.60
2007,09,11,00,56,17.60
2007,09,11,00,57,17.60
2007,09,11,00,58,17.70
2007,09,11,00,59,17.70
2007,09,11,01,00,17.70
2007,09,11,01,01,17.80
2007,09,11,01,02,17.80
2007,09,11,01,03,17.80
2007,09,11,01,04,17.90
2007,09,11,01,05,17.90
2007,09,11,01,06,17.90
2007,09,11,01,07,17.90
2007,09,11,01,08,17.90
2007,09,11,01,09,17.90
2007,09,11,01,10,17.90
2007,09,11,01,11,17.90
2007,09,11,01,12,17.90
2007,09,11,01,13,17.90
2007,09,11,01,14,17.90
2007,09,11,01,15,17.90
2007,09,11,01,16,17.90
2007,09,11,01,17,17.90
2007,09,11,01,18,17.90
2007,09,11,01,19,18.00
2007,09,11,01,20,18.10
2007,09,11,01,21,18.10
2007,09,11,01,22,18.20
2007,09,11,01,23,18.20
2007,09,11,01,24,18.20
2007,09,11,01,25,18.30
2007,09,11,01,26,18.30
2007,09,11,01,27,18.40
2007,09,11,01,28,18.40
2007,09,11,01,29,18.40
2007,09,11,01,30,18.50
2007,09,11,01,31,18.50
2007,09,11,01,32,18.50
2007,09,11,01,33,18.60
2007,09,11,01,34,18.60
2007,09,11,01,35,18.70
2007,09,11,01,36,18.80
2007,09,11,01,37,18.90
2007,09,11,01,38,18.90
2007,09,11,01,39,18.90
2007,09,11,01,40,18.90
2007,09,11,01,41,18.90
2007,09,11,01,42,18.90
2007,09,11,01,43,18.90
2007,09,11,01,44,18.90
2007,09,11,01,45,18.90
2007,09,11,01,46,18.90
2007,09,11,01,47,18.80
2007,09,11,01,48,18.70
2007,09,11,01,49,18.60
2007,09,11,01,50,18.50
2007,09,11,01,51,18.40
2007,09,11,01,52,18.20
2007,09,11,01,53,18.20
2007,09,11,01,54,18.10
2007,09,11,01,55,18.00
2007,09,11,01,56,17.90
2007,09,11,01,57,17.80
2007,09,11,01,58,17.70
2007,09,11,01,59,17.60
2007,09,11,02,00,17.50
2007,09,11,02,01,17.40
2007,09,11,02,02,17.30
2007,09,11,02,03,17.20
2007,09,11,02,04,17.10
2007,09,11,02,05,17.00
2007,09,11,02,06,16.90
2007,09,11,02,07,16.80
2007,09,11,02,08,16.70
2007,09,11,02,09,16.70
2007,09,11,02,10,16.60
2007,09,11,02,11,16.50
2007,09,11,02,12,16.40
2007,09,11,02,13,16.40
2007,09,11,02,14,16.40
2007,09,11,02,15,16.40
2007,09,11,02,16,16.30
2007,09,11,02,17,16.30
2007,09,11,02,18,16.20
2007,09,11,02,19,16.20
2007,09,11,02,20,16.20
2007,09,11,02,21,16.20
2007,09,11,02,22,16.20
2007,09,11,02,23,16.20
2007,09,11,02,24,16.20
2007,09,11,02,25,16.20
2007,09,11,02,26,16.30
2007,09,11,02,27,16.30
2007,09,11,02,28,16.30
2007,09,11,02,29,16.20
2007,09,11,02,30,16.20
2007,09,11,02,31,16.10
2007,09,11,02,32,15.90
2007,09,11,02,33,15.70
2007,09,11,02,34,15.70
2007,09,11,02,35,15.50
2007,09,11,02,36,15.30
2007,09,11,02,37,15.20
2007,09,11,02,38,15.10
2007,09,11,02,39,15.00
2007,09,11,02,40,14.90
2007,09,11,02,41,14.90
2007,09,11,02,42,14.80
2007,09,11,02,43,14.80
2007,09,11,02,44,14.80
2007,09,11,02,45,14.80
2007,09,11,02,46,14.80
2007,09,11,02,47,14.80
2007,09,11,02,48,14.80
2007,09,11,02,49,14.70
2007,09,11,02,50,14.70
2007,09,11,02,51,14.70
2007,09,11,02,52,14.60
2007,09,11,02,53,14.60
2007,09,11,02,54,14.60
2007,09,11,02,55,14.60
2007,09,11,02,56,14.50
2007,09,11,02,57,14.50
2007,09,11,02,58,14.50
2007,09,11,02,59,14.50
2007,09,11,03,00,14.40
2007,09,11,03,01,14.40
2007,09,11,03,02,14.40
2007,09,11,03,03,14.40
2007,09,11,03,04,14.40
2007,09,11,03,05,14.40
2007,09,11,03,06,14.40
2007,09,11,03,07,14.30
2007,09,11,03,08,14.30
2007,09,11,03,09,14.30
2007,09,11,03,10,14.30
2007,09,11,03,11,14.30
2007,09,11,03,12,14.30
2007,09,11,03,13,14.30
2007,09,11,03,14,14.40
2007,09,11,03,15,14.40
2007,09,11,03,16,14.50
2007,09,11,03,17,14.50
2007,09,11,03,18,14.50
2007,09,11,03,19,14.50
2007,09,11,03,20,14.60
2007,09,11,03,21,14.70
2007,09,11,03,22,14.70
2007,09,11,03,23,14.70
2007,09,11,03,24,14.70
2007,09,11,03,25,14.70
2007,09,11,03,26,14.70
2007,09,11,03,27,14.70
2007,09,11,03,28,14.70
2007,09,11,03,29,14.70
2007,09,11,03,30,14.70
2007,09,11,03,31,14.70
2007,09,11,03,32,14.70
2007,09,11,03,33,14.70
2007,09,11,03,34,14.80
2007,09,11,03,35,14.80
2007,09,11,03,36,14.80
2007,09,11,03,37,14.80
2007,09,11,03,38,14.80
2007,09,11,03,39,14.80
2007,09,11,03,40,14.80
2007,09,11,03,41,14.80
2007,09,11,03,42,14.80
2007,09,11,03,43,14.80
2007,09,11,03,44,14.80
2007,09,11,03,45,14.80
2007,09,11,03,46,14.80
2007,09,11,03,47,14.80
2007,09,11,03,48,14.80
2007,09,11,03,49,14.80
2007,09,11,03,50,14.80
2007,09,11,03,51,14.70
2007,09,11,03,52,14.70
2007,09,11,03,53,14.80
2007,09,11,03,54,14.80
2007,09,11,03,55,14.80
2007,09,11,03,56,14.70
2007,09,11,03,57,14.70
2007,09,11,03,58,14.70
2007,09,11,03,59,14.70
2007,09,11,04,00,14.70
2007,09,11,04,01,14.70
2007,09,11,04,02,14.70
2007,09,11,04,03,14.70
2007,09,11,04,04,14.70
2007,09,11,04,05,14.70
2007,09,11,04,06,14.70
2007,09,11,04,07,14.70
2007,09,11,04,08,14.70
2007,09,11,04,09,14.70
2007,09,11,04,10,14.70
2007,09,11,04,11,14.70
2007,09,11,04,12,14.70
2007,09,11,04,13,14.60
2007,09,11,04,14,14.60
2007,09,11,04,15,14.60
2007,09,11,04,16,14.60
2007,09,11,04,17,14.60
2007,09,11,04,18,14.50
2007,09,11,04,19,14.50
2007,09,11,04,20,14.50
2007,09,11,04,21,14.50
2007,09,11,04,22,14.50
2007,09,11,04,23,14.50
2007,09,11,04,24,14.50
2007,09,11,04,25,14.50
2007,09,11,04,26,14.50
2007,09,11,04,27,14.50
2007,09,11,04,28,14.50
2007,09,11,04,29,14.50
2007,09,11,04,30,14.50
2007,09,11,04,31,14.50
2007,09,11,04,32,14.50
2007,09,11,04,33,14.50
2007,09,11,04,34,14.50
2007,09,11,04,35,14.50
2007,09,11,04,36,14.50
2007,09,11,04,37,14.50
2007,09,11,04,38,14.50
2007,09,11,04,39,14.60
2007,09,11,04,40,14.60
2007,09,11,04,41,14.70
2007,09,11,04,42,14.80
2007,09,11,04,43,14.80
2007,09,11,04,44,14.90
2007,09,11,04,45,14.90
2007,09,11,04,46,15.00
2007,09,11,04,47,15.10
2007,09,11,04,48,15.20
2007,09,11,04,49,15.30
2007,09,11,04,50,15.30
2007,09,11,04,51,15.40
2007,09,11,04,52,15.40
2007,09,11,04,53,15.50
2007,09,11,04,54,15.50
2007,09,11,04,55,15.60
2007,09,11,04,56,15.70
2007,09,11,04,57,15.80
2007,09,11,04,58,15.80
2007,09,11,04,59,15.90
2007,09,11,05,00,16.10
2007,09,11,05,01,16.20
2007,09,11,05,02,16.20
2007,09,11,05,03,16.30
2007,09,11,05,04,16.30
2007,09,11,05,05,16.30
2007,09,11,05,06,16.30
2007,09,11,05,07,16.30
2007,09,11,05,08,16.20
2007,09,11,05,09,16.10
2007,09,11,05,10,16.00
2007,09,11,05,11,15.90
2007,09,11,05,12,15.80
2007,09,11,05,13,15.80
2007,09,11,05,14,15.80
2007,09,11,05,15,15.80
2007,09,11,05,16,15.80
2007,09,11,05,17,15.80
2007,09,11,05,18,15.80
2007,09,11,05,19,15.90
2007,09,11,05,20,16.00
2007,09,11,05,21,16.10
2007,09,11,05,22,16.20
2007,09,11,05,23,16.20
2007,09,11,05,24,16.30
2007,09,11,05,25,16.40
2007,09,11,05,26,16.50
2007,09,11,05,27,16.60
2007,09,11,05,28,16.70
2007,09,11,05,29,16.70
2007,09,11,05,30,16.80
2007,09,11,05,31,16.80
2007,09,11,05,32,16.90
2007,09,11,05,33,16.90
2007,09,11,05,34,16.90
2007,09,11,05,35,17.00
2007,09,11,05,36,17.00
2007,09,11,05,37,17.00
2007,09,11,05,38,17.00
2007,09,11,05,39,17.00
2007,09,11,05,40,17.00
2007,09,11,05,41,17.00
2007,09,11,05,42,16.90
2007,09,11,05,43,16.90
2007,09,11,05,44,16.80
2007,09,11,05,45,16.70
2007,09,11,05,46,16.70
2007,09,11,05,47,16.60
2007,09,11,05,48,16.40
2007,09,11,05,49,16.30
2007,09,11,05,50,16.20
2007,09,11,05,51,16.10
2007,09,11,05,52,15.90
2007,09,11,05,53,15.80
2007,09,11,05,54,15.80
2007,09,11,05,55,15.70
2007,09,11,05,56,15.60
2007,09,11,05,57,15.60
2007,09,11,05,58,15.60
2007,09,11,05,59,15.40
2007,09,11,06,00,15.30
2007,09,11,06,01,15.30
2007,09,11,06,02,15.20
2007,09,11,06,03,15.20
2007,09,11,06,04,15.10
2007,09,11,06,05,15.00
2007,09,11,06,06,15.00
2007,09,11,06,07,14.90
2007,09,11,06,08,14.90
2007,09,11,06,09,14.80
2007,09,11,06,10,14.80
2007,09,11,06,11,14.80
2007,09,11,06,12,14.80
2007,09,11,06,13,14.70
2007,09,11,06,14,14.70
2007,09,11,06,15,14.70
2007,09,11,06,16,14.70
2007,09,11,06,17,14.60
2007,09,11,06,18,14.60
2007,09,11,06,19,14.60
2007,09,11,06,20,14.60
2007,09,11,06,21,14.50
2007,09,11,06,22,14.50
2007,09,11,06,23,14.50
2007,09,11,06,24,14.40
2007,09,11,06,25,14.40
2007,09,11,06,26,14.40
2007,09,11,06,27,14.30
2007,09,11,06,28,14.30
2007,09,11,06,29,14.30
2007,09,11,06,30,14.20
2007,09,11,06,31,14.20
2007,09,11,06,32,14.20
2007,09,11,06,33,14.20
2007,09,11,06,34,14.20
2007,09,11,06,35,14.20
2007,09,11,06,36,14.20
2007,09,11,06,37,14.10
2007,09,11,06,38,14.10
2007,09,11,06,39,14.10
2007,09,11,06,40,14.10
2007,09,11,06,41,14.00
2007,09,11,06,42,14.00
2007,09,11,06,43,14.00
2007,09,11,06,44,14.00
2007,09,11,06,45,13.90
2007,09,11,06,46,13.90
2007,09,11,06,47,13.90
2007,09,11,06,48,13.90
2007,09,11,06,49,13.90
2007,09,11,06,50,13.90
2007,09,11,06,51,13.90
2007,09,11,06,52,13.90
2007,09,11,06,53,13.90
2007,09,11,06,54,13.90
2007,09,11,06,55,13.90
2007,09,11,06,56,13.90
2007,09,11,06,57,14.00
2007,09,11,06,58,14.00
2007,09,11,06,59,14.10
2007,09,11,07,00,14.10
2007,09,11,07,01,14.20
2007,09,11,07,02,14.20
2007,09,11,07,03,14.20
2007,09,11,07,04,14.20
2007,09,11,07,05,14.20
2007,09,11,07,06,14.20
2007,09,11,07,07,14.20
2007,09,11,07,08,14.20
2007,09,11,07,09,14.20
2007,09,11,07,10,14.20
2007,09,11,07,11,14.20
2007,09,11,07,12,14.30
2007,09,11,07,13,14.30
2007,09,11,07,14,14.30
2007,09,11,07,15,14.40
2007,09,11,07,16,14.40
2007,09,11,07,17,14.40
2007,09,11,07,18,14.50
2007,09,11,07,19,14.50
2007,09,11,07,20,14.50
2007,09,11,07,21,14.60
2007,09,11,07,22,14.60
2007,09,11,07,23,14.70
2007,09,11,07,24,14.80
2007,09,11,07,25,15.00
2007,09,11,07,26,15.00
2007,09,11,07,27,15.10
2007,09,11,07,28,15.20
2007,09,11,07,29,15.30
2007,09,11,07,30,15.30
2007,09,11,07,31,15.40
2007,09,11,07,32,15.50
2007,09,11,07,33,15.60
2007,09,11,07,34,15.60
2007,09,11,07,35,15.50
2007,09,11,07,36,15.50
2007,09,11,07,37,15.50
2007,09,11,07,38,15.40
2007,09,11,07,39,15.40
2007,09,11,07,40,15.30
2007,09,11,07,41,15.20
2007,09,11,07,42,15.10
2007,09,11,07,43,15.10
2007,09,11,07,44,15.00
2007,09,11,07,45,15.00
2007,09,11,07,46,15.00
2007,09,11,07,47,15.10
2007,09,11,07,48,15.10
2007,09,11,07,49,15.20
2007,09,11,07,50,15.20
2007,09,11,07,51,15.20
2007,09,11,07,52,15.20
2007,09,11,07,53,15.20
2007,09,11,07,54,15.20
2007,09,11,07,55,15.20
2007,09,11,07,56,15.20
2007,09,11,07,57,15.20
2007,09,11,07,58,15.20
2007,09,11,07,59,15.30
2007,09,11,08,00,15.30
2007,09,11,08,01,15.30
2007,09,11,08,02,15.30
2007,09,11,08,03,15.40
2007,09,11,08,04,15.50
2007,09,11,08,05,15.50
2007,09,11,08,06,15.50
2007,09,11,08,07,15.50
2007,09,11,08,08,15.50
2007,09,11,08,09,15.80
2007,09,11,08,10,16.00
2007,09,11,08,11,16.10
2007,09,11,08,12,16.10
2007,09,11,08,13,16.20
2007,09,11,08,14,16.20
2007,09,11,08,15,16.30
2007,09,11,08,16,16.30
2007,09,11,08,17,16.40
2007,09,11,08,18,16.40
2007,09,11,08,19,16.40
2007,09,11,08,20,16.60
2007,09,11,08,21,16.60
2007,09,11,08,22,16.70
2007,09,11,08,23,16.70
2007,09,11,08,24,16.70
2007,09,11,08,25,16.70
2007,09,11,08,26,16.70
2007,09,11,08,27,16.70
2007,09,11,08,28,16.80
2007,09,11,08,29,16.70
2007,09,11,08,30,16.70
2007,09,11,08,31,16.70
2007,09,11,08,32,16.70
2007,09,11,08,33,16.70
2007,09,11,08,34,16.80
2007,09,11,08,35,16.80
2007,09,11,08,36,16.90
2007,09,11,08,37,16.90
2007,09,11,08,38,17.00
2007,09,11,08,39,17.10
2007,09,11,08,40,17.30
2007,09,11,08,41,17.30
2007,09,11,08,42,17.40
2007,09,11,08,43,17.40
2007,09,11,08,44,17.50
2007,09,11,08,45,17.70
2007,09,11,08,46,17.80
2007,09,11,08,47,17.80
2007,09,11,08,48,17.90
2007,09,11,08,49,17.90
2007,09,11,08,50,18.00
2007,09,11,08,51,18.10
2007,09,11,08,52,18.20
2007,09,11,08,53,18.20
2007,09,11,08,54,18.20
2007,09,11,08,55,18.30
2007,09,11,08,56,18.40
2007,09,11,08,57,18.40
2007,09,11,08,58,18.40
2007,09,11,08,59,18.40
2007,09,11,09,00,18.40
2007,09,11,09,01,18.40
2007,09,11,09,02,18.40
2007,09,11,09,03,18.40
2007,09,11,09,04,18.50
2007,09,11,09,05,18.50
2007,09,11,09,06,18.50
2007,09,11,09,07,18.50
2007,09,11,09,08,18.60
2007,09,11,09,09,18.60
2007,09,11,09,10,18.60
2007,09,11,09,11,18.60
2007,09,11,09,12,18.60
2007,09,11,09,13,18.70
2007,09,11,09,14,18.70
2007,09,11,09,15,18.70
2007,09,11,09,16,18.70
2007,09,11,09,17,18.60
2007,09,11,09,18,18.50
2007,09,11,09,19,18.50
2007,09,11,09,20,18.50
2007,09,11,09,21,18.50
2007,09,11,09,22,18.50
2007,09,11,09,23,18.50
2007,09,11,09,24,18.40
2007,09,11,09,25,18.40
2007,09,11,09,26,18.40
2007,09,11,09,27,18.40
2007,09,11,09,28,18.40
2007,09,11,09,29,18.40
2007,09,11,09,30,18.40
2007,09,11,09,31,18.50
2007,09,11,09,32,18.40
2007,09,11,09,33,18.40
2007,09,11,09,34,18.30
2007,09,11,09,35,18.20
2007,09,11,09,36,18.20
2007,09,11,09,37,18.20
2007,09,11,09,38,18.20
2007,09,11,09,39,18.20
2007,09,11,09,40,18.20
2007,09,11,09,41,18.20
2007,09,11,09,42,18.20
2007,09,11,09,43,18.20
2007,09,11,09,44,18.20
2007,09,11,09,45,18.20
2007,09,11,09,46,18.20
2007,09,11,09,47,18.20
2007,09,11,09,48,18.20
2007,09,11,09,49,18.20
2007,09,11,09,50,18.20
2007,09,11,09,51,18.30
2007,09,11,09,52,18.30
2007,09,11,09,53,18.40
2007,09,11,09,54,18.50
2007,09,11,09,55,18.50
2007,09,11,09,56,18.50
2007,09,11,09,57,18.60
2007,09,11,09,58,18.70
2007,09,11,09,59,18.70
2007,09,11,10,00,18.70
2007,09,11,10,01,18.90
2007,09,11,10,02,18.90
2007,09,11,10,03,18.90
2007,09,11,10,04,18.90
2007,09,11,10,05,18.90
2007,09,11,10,06,18.90
2007,09,11,10,07,18.90
2007,09,11,10,08,19.10
2007,09,11,10,09,19.10
2007,09,11,10,10,19.20
2007,09,11,10,11,19.30
2007,09,11,10,12,19.30
2007,09,11,10,13,19.30
2007,09,11,10,14,19.40
2007,09,11,10,15,19.40
2007,09,11,10,16,19.40
2007,09,11,10,17,19.40
2007,09,11,10,18,19.40
2007,09,11,10,19,19.40
2007,09,11,10,20,19.40
2007,09,11,10,21,19.50
2007,09,11,10,22,19.50
2007,09,11,10,23,19.50
2007,09,11,10,24,19.50
2007,09,11,10,25,19.50
2007,09,11,10,26,19.50
2007,09,11,10,27,19.40
2007,09,11,10,28,19.40
2007,09,11,10,29,19.40
2007,09,11,10,30,19.40
2007,09,11,10,31,19.30
2007,09,11,10,32,19.20
2007,09,11,10,33,19.20
2007,09,11,10,34,19.20
2007,09,11,10,35,19.20
2007,09,11,10,36,19.20
2007,09,11,10,37,19.20
2007,09,11,10,38,19.20
2007,09,11,10,39,19.30
2007,09,11,10,40,19.30
2007,09,11,10,41,19.40
2007,09,11,10,42,19.40
2007,09,11,10,43,19.50
2007,09,11,10,44,19.60
2007,09,11,10,45,19.60
2007,09,11,10,46,19.60
2007,09,11,10,47,19.50
2007,09,11,10,48,19.50
2007,09,11,10,49,19.50
2007,09,11,10,50,19.50
2007,09,11,10,51,19.50
2007,09,11,10,52,19.60
2007,09,11,10,53,19.60
2007,09,11,10,54,19.60
2007,09,11,10,55,19.60
2007,09,11,10,56,19.70
2007,09,11,10,57,19.70
2007,09,11,10,58,19.70
2007,09,11,10,59,19.70
2007,09,11,11,00,19.70
2007,09,11,11,01,19.60
2007,09,11,11,02,19.60
2007,09,11,11,03,19.60
2007,09,11,11,04,19.60
2007,09,11,11,05,19.70
2007,09,11,11,06,19.60
2007,09,11,11,07,19.60
2007,09,11,11,08,19.60
2007,09,11,11,09,19.60
2007,09,11,11,10,19.60
2007,09,11,11,11,19.60
2007,09,11,11,12,19.60
2007,09,11,11,13,19.60
2007,09,11,11,14,19.80
2007,09,11,11,15,19.80
2007,09,11,11,16,19.80
2007,09,11,11,17,19.90
2007,09,11,11,18,19.90
2007,09,11,11,19,20.10
2007,09,11,11,20,20.20
2007,09,11,11,21,20.20
2007,09,11,11,22,20.30
2007,09,11,11,23,20.50
2007,09,11,11,24,20.50
2007,09,11,11,25,20.60
2007,09,11,11,26,20.70
2007,09,11,11,27,20.70
2007,09,11,11,28,20.80
2007,09,11,11,29,20.90
2007,09,11,11,30,20.90
2007,09,11,11,31,21.00
2007,09,11,11,32,21.00
2007,09,11,11,33,21.10
2007,09,11,11,34,21.20
2007,09,11,11,35,21.20
2007,09,11,11,36,21.30
2007,09,11,11,37,21.30
2007,09,11,11,38,21.40
2007,09,11,11,39,21.40
2007,09,11,11,40,21.50
2007,09,11,11,41,21.60
2007,09,11,11,42,21.60
2007,09,11,11,43,21.50
2007,09,11,11,44,21.40
2007,09,11,11,45,21.30
2007,09,11,11,46,21.30
2007,09,11,11,47,21.30
2007,09,11,11,48,21.30
2007,09,11,11,49,21.40
2007,09,11,11,50,21.40
2007,09,11,11,51,21.30
2007,09,11,11,52,21.30
2007,09,11,11,53,21.30
2007,09,11,11,54,21.30
2007,09,11,11,55,21.30
2007,09,11,11,56,21.20
2007,09,11,11,57,21.20
2007,09,11,11,58,21.30
2007,09,11,11,59,21.20
2007,09,11,12,00,21.20
2007,09,11,12,01,21.20
2007,09,11,12,02,21.30
2007,09,11,12,03,21.30
2007,09,11,12,04,21.40
2007,09,11,12,05,21.50
2007,09,11,12,06,21.60
2007,09,11,12,07,21.50
2007,09,11,12,08,21.40
2007,09,11,12,09,21.30
2007,09,11,12,10,21.30
2007,09,11,12,11,21.30
2007,09,11,12,12,21.20
2007,09,11,12,13,21.20
2007,09,11,12,14,21.20
2007,09,11,12,15,21.10
2007,09,11,12,16,21.10
2007,09,11,12,17,21.10
2007,09,11,12,18,21.20
2007,09,11,12,19,21.30
2007,09,11,12,20,21.30
2007,09,11,12,21,21.50
2007,09,11,12,22,21.60
2007,09,11,12,23,21.60
2007,09,11,12,24,21.60
2007,09,11,12,25,21.60
2007,09,11,12,26,21.60
2007,09,11,12,27,21.60
2007,09,11,12,28,21.40
2007,09,11,12,29,21.30
2007,09,11,12,30,21.40
2007,09,11,12,31,21.40
2007,09,11,12,32,21.60
2007,09,11,12,33,21.60
2007,09,11,12,34,21.60
2007,09,11,12,35,21.60
2007,09,11,12,36,21.70
2007,09,11,12,37,21.80
2007,09,11,12,38,21.90
2007,09,11,12,39,22.10
2007,09,11,12,40,22.20
2007,09,11,12,41,22.40
2007,09,11,12,42,22.60
2007,09,11,12,43,22.60
2007,09,11,12,44,22.70
2007,09,11,12,45,22.60
2007,09,11,12,46,22.50
2007,09,11,12,47,22.50
2007,09,11,12,48,22.60
2007,09,11,12,49,22.60
2007,09,11,12,50,22.50
2007,09,11,12,51,22.40
2007,09,11,12,52,22.40
2007,09,11,12,53,22.40
2007,09,11,12,54,22.50
2007,09,11,12,55,22.60
2007,09,11,12,56,22.70
2007,09,11,12,57,22.80
2007,09,11,12,58,22.80
2007,09,11,12,59,22.90
2007,09,11,13,00,22.90
2007,09,11,13,01,23.00
2007,09,11,13,02,22.90
2007,09,11,13,03,23.00
2007,09,11,13,04,23.10
2007,09,11,13,05,23.10
2007,09,11,13,06,23.10
2007,09,11,13,07,23.00
2007,09,11,13,08,22.90
2007,09,11,13,09,22.90
2007,09,11,13,10,22.90
2007,09,11,13,11,22.80
2007,09,11,13,12,22.70
2007,09,11,13,13,22.70
2007,09,11,13,14,22.80
2007,09,11,13,15,22.80
2007,09,11,13,16,22.90
2007,09,11,13,17,22.90
2007,09,11,13,18,22.90
2007,09,11,13,19,22.90
2007,09,11,13,20,22.90
2007,09,11,13,21,23.10
2007,09,11,13,22,23.30
2007,09,11,13,23,23.30
2007,09,11,13,24,23.40
2007,09,11,13,25,23.50
2007,09,11,13,26,23.60
2007,09,11,13,27,23.70
2007,09,11,13,28,23.70
2007,09,11,13,29,23.70
2007,09,11,13,30,23.70
2007,09,11,13,31,23.70
2007,09,11,13,32,23.60
2007,09,11,13,33,23.60
2007,09,11,13,34,23.40
2007,09,11,13,35,23.40
2007,09,11,13,36,23.30
2007,09,11,13,37,23.30
2007,09,11,13,38,23.30
2007,09,11,13,39,23.30
2007,09,11,13,40,23.20
2007,09,11,13,41,23.20
2007,09,11,13,42,23.10
2007,09,11,13,43,23.10
2007,09,11,13,44,23.10
2007,09,11,13,45,23.10
2007,09,11,13,46,23.10
2007,09,11,13,47,23.20
2007,09,11,13,48,23.20
2007,09,11,13,49,23.30
2007,09,11,13,50,23.30
2007,09,11,13,51,23.20
2007,09,11,13,52,23.20
2007,09,11,13,53,23.30
2007,09,11,13,54,23.30
2007,09,11,13,55,23.50
2007,09,11,13,56,23.60
2007,09,11,13,57,23.70
2007,09,11,13,58,23.80
2007,09,11,13,59,23.80
2007,09,11,14,00,23.90
2007,09,11,14,01,23.90
2007,09,11,14,02,24.00
2007,09,11,14,03,24.10
2007,09,11,14,04,24.20
2007,09,11,14,05,24.30
2007,09,11,14,06,24.30
2007,09,11,14,07,24.40
2007,09,11,14,08,24.50
2007,09,11,14,09,24.60
2007,09,11,14,10,24.50
2007,09,11,14,11,24.50
2007,09,11,14,12,24.50
2007,09,11,14,13,24.40
2007,09,11,14,14,24.50
2007,09,11,14,15,24.50
2007,09,11,14,16,24.50
2007,09,11,14,17,24.50
2007,09,11,14,18,24.50
2007,09,11,14,19,24.60
2007,09,11,14,20,24.60
2007,09,11,14,21,24.60
2007,09,11,14,22,24.60
2007,09,11,14,23,24.70
2007,09,11,14,24,24.70
2007,09,11,14,25,24.60
2007,09,11,14,26,24.60
2007,09,11,14,27,24.50
2007,09,11,14,28,24.50
2007,09,11,14,29,24.50
2007,09,11,14,30,24.40
2007,09,11,14,31,24.40
2007,09,11,14,32,24.40
2007,09,11,14,33,24.20
2007,09,11,14,34,24.20
2007,09,11,14,35,24.20
2007,09,11,14,36,24.10
2007,09,11,14,37,24.20
2007,09,11,14,38,24.30
2007,09,11,14,39,24.30
2007,09,11,14,40,24.30
2007,09,11,14,41,24.30
2007,09,11,14,42,24.30
2007,09,11,14,43,24.30
2007,09,11,14,44,24.20
2007,09,11,14,45,24.10
2007,09,11,14,46,24.10
2007,09,11,14,47,24.20
2007,09,11,14,48,24.20
2007,09,11,14,49,24.20
2007,09,11,14,50,24.20
2007,09,11,14,51,24.20
2007,09,11,14,52,24.20
2007,09,11,14,53,24.20
2007,09,11,14,54,24.20
2007,09,11,14,55,24.00
2007,09,11,14,56,23.90
2007,09,11,14,57,23.90
2007,09,11,14,58,23.90
2007,09,11,14,59,24.10
2007,09,11,15,00,24.10
2007,09,11,15,01,24.20
2007,09,11,15,02,24.10
2007,09,11,15,03,24.10
2007,09,11,15,04,24.10
2007,09,11,15,05,24.10
2007,09,11,15,06,24.10
2007,09,11,15,07,24.10
2007,09,11,15,08,24.20
2007,09,11,15,09,24.20
2007,09,11,15,10,24.30
2007,09,11,15,11,24.40
2007,09,11,15,12,24.40
2007,09,11,15,13,24.30
2007,09,11,15,14,24.20
2007,09,11,15,15,24.10
2007,09,11,15,16,24.00
2007,09,11,15,17,23.90
2007,09,11,15,18,23.90
2007,09,11,15,19,23.90
2007,09,11,15,20,23.90
2007,09,11,15,21,23.90
2007,09,11,15,22,23.90
2007,09,11,15,23,24.00
2007,09,11,15,24,24.20
2007,09,11,15,25,24.30
2007,09,11,15,26,24.30
2007,09,11,15,27,24.20
2007,09,11,15,28,24.10
2007,09,11,15,29,24.20
2007,09,11,15,30,24.30
2007,09,11,15,31,24.30
2007,09,11,15,32,24.40
2007,09,11,15,33,24.40
2007,09,11,15,34,24.30
2007,09,11,15,35,24.30
2007,09,11,15,36,24.20
2007,09,11,15,37,24.20
2007,09,11,15,38,24.10
2007,09,11,15,39,24.10
2007,09,11,15,40,24.10
2007,09,11,15,41,24.10
2007,09,11,15,42,24.10
2007,09,11,15,43,24.20
2007,09,11,15,44,24.30
2007,09,11,15,45,24.30
2007,09,11,15,46,24.30
2007,09,11,15,47,24.30
2007,09,11,15,48,24.40
2007,09,11,15,49,24.40
2007,09,11,15,50,24.50
2007,09,11,15,51,24.50
2007,09,11,15,52,24.50
2007,09,11,15,53,24.50
2007,09,11,15,54,24.50
2007,09,11,15,55,24.50
2007,09,11,15,56,24.60
2007,09,11,15,57,24.60
2007,09,11,15,58,24.70
2007,09,11,15,59,24.70
2007,09,11,16,00,24.70
2007,09,11,16,01,24.70
2007,09,11,16,02,24.70
2007,09,11,16,03,24.70
2007,09,11,16,04,24.60
2007,09,11,16,05,24.50
2007,09,11,16,06,24.50
2007,09,11,16,07,24.50
2007,09,11,16,08,24.50
2007,09,11,16,09,24.50
2007,09,11,16,10,24.40
2007,09,11,16,11,24.40
2007,09,11,16,12,24.50
2007,09,11,16,13,24.50
2007,09,11,16,14,24.50
2007,09,11,16,15,24.50
2007,09,11,16,16,24.50
2007,09,11,16,17,24.50
2007,09,11,16,18,24.60
2007,09,11,16,19,24.50
2007,09,11,16,20,24.60
2007,09,11,16,21,24.60
2007,09,11,16,22,24.60
2007,09,11,16,23,24.50
2007,09,11,16,24,24.50
2007,09,11,16,25,24.40
2007,09,11,16,26,24.40
2007,09,11,16,27,24.40
2007,09,11,16,28,24.40
2007,09,11,16,29,24.40
2007,09,11,16,30,24.40
2007,09,11,16,31,24.40
2007,09,11,16,32,24.30
2007,09,11,16,33,24.10
2007,09,11,16,34,24.10
2007,09,11,16,35,24.00
2007,09,11,16,36,23.80
2007,09,11,16,37,23.80
2007,09,11,16,38,23.70
2007,09,11,16,39,23.70
2007,09,11,16,40,23.60
2007,09,11,16,41,23.60
2007,09,11,16,42,23.60
2007,09,11,16,43,23.70
2007,09,11,16,44,23.70
2007,09,11,16,45,23.70
2007,09,11,16,46,23.70
2007,09,11,16,47,23.70
2007,09,11,16,48,23.70
2007,09,11,16,49,23.70
2007,09,11,16,50,23.70
2007,09,11,16,51,23.70
2007,09,11,16,52,23.60
2007,09,11,16,53,23.60
2007,09,11,16,54,23.40
2007,09,11,16,55,23.30
2007,09,11,16,56,23.20
2007,09,11,16,57,23.20
2007,09,11,16,58,23.20
2007,09,11,16,59,23.20
2007,09,11,17,00,23.20
2007,09,11,17,01,23.10
2007,09,11,17,02,23.00
2007,09,11,17,03,22.90
2007,09,11,17,04,22.70
2007,09,11,17,05,22.60
2007,09,11,17,06,22.60
2007,09,11,17,07,22.50
2007,09,11,17,08,22.50
2007,09,11,17,09,22.50
2007,09,11,17,10,22.40
2007,09,11,17,11,22.40
2007,09,11,17,12,22.40
2007,09,11,17,13,22.40
2007,09,11,17,14,22.30
2007,09,11,17,15,22.30
2007,09,11,17,16,22.30
2007,09,11,17,17,22.30
2007,09,11,17,18,22.30
2007,09,11,17,19,22.20